Location: Unspecified
(38.6830°S, 0.0000°E)
Time: 08:08:09
(UTC+00:00)

Envisat - Pass Details

Date: 29 May 2019
Orbit: 764 x 766 km, 98.1° (Epoch: 25 June)

Event Time Altitude Azimuth Distance (km) Brightness Sun altitude
Exits shadow 19:40:50 24° 333° (NNW) 1,571 4.8 -33.2°
Drops below altitude 10° 19:42:46 10° 337° (NNW) 2,307 5.7 -33.5°
Sets 19:45:04 0° 339° (NNW) 3,226 6.5 -34.0°
